This is the latest recevied weather packets stored in our database for station/object K0SDS. If no packets are shown the sender has not sent any weather packets the latest 10 day(s).
| Time | Temp. | Humidity | Pressure | Rain* | Wind** | Luminosity | Snow |
|---|---|---|---|---|---|---|---|
| 1778084955 | 13.89° C | 43% | 1019.4 hPa | 0 mm | - | 390 W/m² | - |
| 1778084653 | 13.33° C | 46% | 1019.5 hPa | 0 mm | - | 409 W/m² | - |
| 1778084350 | 13.33° C | 40% | 1019.4 hPa | 0 mm | - | 333 W/m² | - |
| 1778084048 | 13.33° C | 42% | 1019.2 hPa | 0 mm | - | 397 W/m² | - |
| 1778083739 | 13.33° C | 43% | 1019.2 hPa | 0 mm | - | 567 W/m² | - |
| 1778083436 | 13.33° C | 39% | 1019.2 hPa | 0 mm | - | 290 W/m² | - |
| 1778083134 | 14.44° C | 43% | 1019.1 hPa | 0 mm | - | 289 W/m² | - |
| 1778082831 | 14.44° C | 43% | 1019 hPa | 0 mm | - | 410 W/m² | - |
| 1778081709 | 13.89° C | 44% | 1018.9 hPa | 0 mm | - | 732 W/m² | - |
| 1778081406 | 12.78° C | 41% | 1018.7 hPa | 0 mm | - | 570 W/m² | - |
| 1778081103 | 13.33° C | 51% | 1019 hPa | 0 mm | - | 687 W/m² | - |
| 1778080801 | 13.33° C | 49% | 1018.7 hPa | 0 mm | - | 401 W/m² | - |
| 1778080498 | 12.78° C | 49% | 1018.9 hPa | 0 mm | - | 671 W/m² | - |
| 1778080195 | 13.33° C | 50% | 1018.9 hPa | 0 mm | - | 619 W/m² | - |
| 1778079891 | 12.78° C | 52% | 1019.1 hPa | 0 mm | - | 551 W/m² | - |
| 1778079588 | 12.78° C | 55% | 1019 hPa | 0 mm | - | 437 W/m² | - |
| 1778079285 | 12.78° C | 55% | 1018.9 hPa | 0 mm | - | 528 W/m² | - |
| 1778078983 | 12.78° C | 57% | 1018.9 hPa | 0 mm | - | 496 W/m² | - |
| 1778078679 | 12.78° C | 61% | 1019 hPa | 0 mm | - | 459 W/m² | - |
| 1778078377 | 12.22° C | 56% | 1019 hPa | 0 mm | - | 411 W/m² | - |
| 1778078074 | 12.22° C | 59% | 1018.9 hPa | 0 mm | - | 409 W/m² | - |
| 1778077772 | 11.67° C | 59% | 1018.8 hPa | 0 mm | - | 379 W/m² | - |
| 1778077470 | 11.67° C | 64% | 1018.9 hPa | 0 mm | - | 319 W/m² | - |
| 1778077168 | 11.67° C | 60% | 1018.9 hPa | 0 mm | - | 289 W/m² | - |
| 1778076865 | 11.67° C | 64% | 1018.8 hPa | 0 mm | - | 259 W/m² | - |
* Rain latest hour (hover to see other rain measurements)
** Current wind speed in m/s (hover to see current wind gust speed)